This is the latest recevied weather packets stored in our database for station/object KF7ROW. If no packets are shown the sender has not sent any weather packets the latest 10 day(s).
| Time | Temp. | Humidity | Pressure | Rain* | Wind** | Luminosity | Snow |
|---|---|---|---|---|---|---|---|
| 1778020537 | 14.44° C | 83% | 1020.7 hPa | 0 mm | - | 293 W/m² | - |
| 1778020233 | 14.44° C | 83% | 1020.9 hPa | 0 mm | - | 262 W/m² | - |
| 1778019930 | 14.44° C | 84% | 1021.1 hPa | 0 mm | - | 257 W/m² | - |
| 1778019626 | 14.44° C | 85% | 1020.9 hPa | 0 mm | - | 240 W/m² | - |
| 1778019323 | 14.44° C | 84% | 1021 hPa | 0 mm | - | 243 W/m² | - |
| 1778019020 | 14.44° C | 84% | 1021 hPa | 0 mm | - | 267 W/m² | - |
| 1778018717 | 13.89° C | 85% | 1021 hPa | 0 mm | - | 252 W/m² | - |
| 1778018415 | 13.89° C | 85% | 1021.1 hPa | 0 mm | - | 245 W/m² | - |
| 1778018113 | 13.89° C | 85% | 1021.1 hPa | 0 mm | - | 276 W/m² | - |
| 1778017810 | 13.89° C | 86% | 1021.2 hPa | 0 mm | - | 240 W/m² | - |
| 1778017508 | 13.89° C | 85% | 1021 hPa | 0 mm | - | 197 W/m² | - |
| 1778017205 | 14.44° C | 86% | 1021.2 hPa | 0 mm | - | 199 W/m² | - |
| 1778016903 | 14.44° C | 86% | 1021.2 hPa | 0 mm | - | 198 W/m² | - |
| 1778016599 | 14.44° C | 85% | 1021.2 hPa | 0 mm | - | 195 W/m² | - |
| 1778016295 | 14.44° C | 85% | 1021.3 hPa | 0 mm | - | 198 W/m² | - |
| 1778015992 | 14.44° C | 85% | 1021.2 hPa | 0 mm | - | 199 W/m² | - |
| 1778015690 | 14.44° C | 85% | 1021.3 hPa | 0 mm | - | 202 W/m² | - |
| 1778015386 | 13.89° C | 85% | 1021.2 hPa | 0 mm | - | 203 W/m² | - |
| 1778015083 | 13.89° C | 85% | 1021.3 hPa | 0 mm | - | 199 W/m² | - |
| 1778014780 | 13.89° C | 85% | 1021.1 hPa | 0 mm | - | 212 W/m² | - |
| 1778014478 | 13.89° C | 85% | 1021.3 hPa | 0 mm | - | 211 W/m² | - |
| 1778014175 | 13.89° C | 85% | 1021.2 hPa | 0 mm | - | 208 W/m² | - |
| 1778013873 | 13.89° C | 85% | 1021.2 hPa | 0 mm | - | 239 W/m² | - |
| 1778013570 | 14.44° C | 85% | 1021 hPa | 0 mm | - | 267 W/m² | - |
| 1778013266 | 14.44° C | 85% | 1021.2 hPa | 0 mm | - | 242 W/m² | - |
* Rain latest hour (hover to see other rain measurements)
** Current wind speed in m/s (hover to see current wind gust speed)